Location: Little Baddow
(51.7333°N, 0.5667°E)
Time: 00:22:24
(UTC+00:00)

Cosmos 1980 Rocket - Pass Details

Date: 08 November 2025
Orbit: 829 x 848 km, 71.0° (Epoch: 04 December)

Event Time Altitude Azimuth Distance (km) Brightness Sun altitude
Exits shadow 05:09:49 10° 330° (NNW) 2,464 4.3 -17.9°
Maximum altitude 05:11:33 11° 348° (NNW) 2,370 4.4 -17.6°
Drops below altitude 10° 05:13:23 10° 8° (N) 2,475 4.7 -17.3°
Sets 05:17:53 0° 41° (NE) 3,406 5.9 -16.6°
